| time (UTC) | temp C | wind direction | speed KPH | gust KPH | rain 1hr cm | rain 24hr cm | rain mn cm | humidity % | barometer mb |
| 20260502204033 | 9 | 0 | 0.0 | 1.6 | 0.00 | 0.08 | 0.08 | 82 | 1009.7 |
| 20260502203532 | 10 | 0 | 0.0 | 8.0 | 0.00 | 0.08 | 0.08 | 79 | 1009.8 |
| 20260502203049 | 10 | 338 | 3.2 | 8.0 | 0.00 | 0.08 | 0.08 | 78 | 1009.7 |
| 20260502202534 | 10 | 355 | 4.8 | 8.0 | 0.00 | 0.08 | 0.08 | 79 | 1009.7 |
| 20260502202036 | 10 | 4 | 1.6 | 4.8 | 0.00 | 0.08 | 0.08 | 79 | 1009.8 |
| 20260502201539 | 10 | 330 | 0.0 | 1.6 | 0.00 | 0.08 | 0.08 | 80 | 1009.8 |
| 20260502201034 | 10 | 0 | 0.0 | 1.6 | 0.00 | 0.08 | 0.08 | 80 | 1009.8 |
| 20260502200534 | 10 | 0 | 0.0 | 0.0 | 0.00 | 0.08 | 0.08 | 80 | 1009.8 |
| 20260502200042 | 10 | 0 | 0.0 | 0.0 | 0.00 | 0.08 | 0.08 | 81 | 1010.0 |
| 20260502195535 | 10 | 0 | 0.0 | 1.6 | 0.00 | 0.08 | 0.08 | 82 | 1010.0 |
| 20260502195035 | 10 | 0 | 0.0 | 1.6 | 0.00 | 0.08 | 0.08 | 83 | 1009.9 |
| 20260502194545 | 10 | 0 | 0.0 | 0.0 | 0.00 | 0.08 | 0.08 | 81 | 1009.9 |
| 20260502194033 | 10 | 0 | 0.0 | 0.0 | 0.00 | 0.08 | 0.08 | 82 | 1009.9 |
| 20260502193534 | 10 | 0 | 0.0 | 0.0 | 0.00 | 0.08 | 0.08 | 82 | 1009.9 |
| 20260502193048 | 10 | 160 | 0.0 | 0.0 | 0.00 | 0.08 | 0.08 | 83 | 1009.9 |
| 20260502192537 | 10 | 0 | 0.0 | 0.0 | 0.00 | 0.08 | 0.08 | 84 | 1009.9 |
| 20260502192033 | 10 | 0 | 0.0 | 1.6 | 0.00 | 0.08 | 0.08 | 84 | 1010.0 |
| 20260502191546 | 10 | 0 | 0.0 | 1.6 | 0.00 | 0.08 | 0.08 | 83 | 1010.1 |
| 20260502191034 | 10 | 0 | 0.0 | 1.6 | 0.00 | 0.08 | 0.08 | 83 | 1010.0 |
| 20260502190533 | 10 | 229 | 0.0 | 1.6 | 0.00 | 0.08 | 0.08 | 84 | 1010.0 |
| 20260502190058 | 10 | 0 | 0.0 | 1.6 | 0.00 | 0.08 | 0.08 | 83 | 1010.0 |
| 20260502185557 | 10 | 0 | 0.0 | 1.6 | 0.00 | 0.08 | 0.08 | 81 | 1010.1 |
| 20260502185034 | 10 | 0 | 0.0 | 3.2 | 0.00 | 0.08 | 0.08 | 80 | 1010.0 |
| 20260502184549 | 10 | 0 | 0.0 | 3.2 | 0.00 | 0.08 | 0.08 | 79 | 1010.1 |
| 20260502184034 | 10 | 0 | 0.0 | 1.6 | 0.00 | 0.08 | 0.08 | 78 | 1010.0 |
| 20260502183534 | 10 | 0 | 0.0 | 3.2 | 0.00 | 0.08 | 0.08 | 80 | 1010.0 |
| 20260502183041 | 11 | 0 | 0.0 | 3.2 | 0.00 | 0.08 | 0.08 | 78 | 1010.0 |
| 20260502182534 | 11 | 99 | 0.0 | 1.6 | 0.00 | 0.08 | 0.08 | 79 | 1010.0 |
| 20260502182033 | 11 | 0 | 0.0 | 3.2 | 0.00 | 0.08 | 0.08 | 76 | 1010.1 |
| 20260502181545 | 11 | 0 | 0.0 | 4.8 | 0.00 | 0.08 | 0.08 | 78 | 1010.0 |
| 20260502181033 | 11 | 213 | 0.0 | 4.8 | 0.00 | 0.08 | 0.08 | 76 | 1010.0 |
| 20260502180533 | 11 | 224 | 3.2 | 4.8 | 0.00 | 0.08 | 0.08 | 74 | 1010.1 |
| 20260502164033 | 12 | 0 | 0.0 | 1.6 | 0.00 | 0.08 | 0.08 | 73 | 1010.4 |
| 20260502163535 | 12 | 0 | 0.0 | 1.6 | 0.00 | 0.08 | 0.08 | 72 | 1010.4 |
| 20260502163051 | 12 | 307 | 0.0 | 1.6 | 0.00 | 0.08 | 0.08 | 71 | 1010.4 |
| 20260502162533 | 12 | 0 | 0.0 | 6.4 | 0.03 | 0.08 | 0.08 | 73 | 1010.6 |
| 20260502162033 | 12 | 0 | 0.0 | 6.4 | 0.05 | 0.08 | 0.08 | 71 | 1010.5 |
| 20260502161544 | 12 | 336 | 0.0 | 4.8 | 0.08 | 0.08 | 0.08 | 84 | 1010.7 |
| 20260502161033 | 12 | 0 | 0.0 | 1.6 | 0.08 | 0.08 | 0.08 | 84 | 1010.7 |
| 20260502160533 | 12 | 0 | 0.0 | 3.2 | 0.08 | 0.08 | 0.08 | 83 | 1010.8 |
| 20260502152033 | 14 | 291 | 4.8 | 12.9 | 0.00 | 0.00 | 0.00 | 63 | 1010.9 |
| 20260502151542 | 15 | 269 | 4.8 | 16.1 | 0.00 | 0.00 | 0.00 | 58 | 1011.0 |
| 20260502151033 | 16 | 255 | 8.0 | 20.9 | 0.00 | 0.00 | 0.00 | 54 | 1011.0 |
| 20260502150533 | 16 | 233 | 11.3 | 20.9 | 0.00 | 0.00 | 0.00 | 51 | 1011.0 |
| 20260502130533 | 18 | 215 | 8.0 | 17.7 | 0.00 | 0.00 | 0.00 | 41 | 1011.0 |
| 20260502123533 | 18 | 228 | 12.9 | 20.9 | 0.00 | 0.00 | 0.00 | 40 | 1011.3 |
| 20260502123045 | 18 | 215 | 11.3 | 17.7 | 0.00 | 0.00 | 0.00 | 44 | 1011.4 |
| 20260502122534 | 18 | 208 | 12.9 | 19.3 | 0.00 | 0.00 | 0.00 | 43 | 1011.4 |
| 20260502122034 | 17 | 217 | 14.5 | 20.9 | 0.00 | 0.00 | 0.00 | 43 | 1011.3 |
| 20260502121555 | 17 | 236 | 16.1 | 24.1 | 0.00 | 0.00 | 0.00 | 43 | 1011.4 |
| 20260502121037 | 17 | 211 | 14.5 | 24.1 | 0.00 | 0.00 | 0.00 | 43 | 1011.5 |
| 20260502120533 | 17 | 218 | 17.7 | 24.1 | 0.00 | 0.00 | 0.00 | 41 | 1011.5 |
| 20260502115537 | 18 | 239 | 19.3 | 24.1 | 0.00 | 0.00 | 0.00 | 39 | 1011.6 |
| 20260502115034 | 19 | 246 | 17.7 | 24.1 | 0.00 | 0.00 | 0.00 | 40 | 1011.6 |
| 20260502114548 | 18 | 219 | 16.1 | 22.5 | 0.00 | 0.00 | 0.00 | 39 | 1011.7 |
| 20260502114034 | 18 | 209 | 14.5 | 20.9 | 0.00 | 0.00 | 0.00 | 38 | 1011.6 |
| 20260502113535 | 17 | 233 | 12.9 | 17.7 | 0.00 | 0.00 | 0.00 | 39 | 1011.8 |
| 20260502113043 | 17 | 172 | 9.7 | 19.3 | 0.00 | 0.00 | 0.00 | 39 | 1011.8 |
| 20260502112532 | 17 | 232 | 12.9 | 19.3 | 0.00 | 0.00 | 0.00 | 39 | 1012.0 |
| 20260502112033 | 18 | 200 | 9.7 | 19.3 | 0.00 | 0.00 | 0.00 | 38 | 1012.1 |
| 20260502111553 | 18 | 254 | 6.4 | 24.1 | 0.00 | 0.00 | 0.00 | 40 | 1011.9 |
| 20260502111035 | 18 | 120 | 9.7 | 24.1 | 0.00 | 0.00 | 0.00 | 37 | 1012.1 |
| 20260502110534 | 18 | 218 | 14.5 | 24.1 | 0.00 | 0.00 | 0.00 | 39 | 1012.2 |
| 20260502110050 | 17 | 179 | 9.7 | 20.9 | 0.00 | 0.00 | 0.00 | 38 | 1012.3 |
| 20260502105536 | 17 | 215 | 11.3 | 20.9 | 0.00 | 0.00 | 0.00 | 40 | 1012.3 |
| 20260502105033 | 17 | 229 | 12.9 | 20.9 | 0.00 | 0.00 | 0.00 | 37 | 1012.4 |
| 20260502104543 | 17 | 225 | 11.3 | 20.9 | 0.00 | 0.00 | 0.00 | 37 | 1012.5 |
| 20260502104035 | 17 | 223 | 12.9 | 24.1 | 0.00 | 0.00 | 0.00 | 36 | 1012.6 |
| 20260502103533 | 17 | 248 | 12.9 | 37.0 | 0.00 | 0.00 | 0.00 | 35 | 1012.7 |
| 20260502103050 | 17 | 276 | 16.1 | 37.0 | 0.00 | 0.00 | 0.00 | 33 | 1012.7 |
| 20260502102535 | 18 | 225 | 16.1 | 37.0 | 0.00 | 0.00 | 0.00 | 34 | 1012.5 |
| 20260502102034 | 18 | 215 | 16.1 | 30.6 | 0.00 | 0.00 | 0.00 | 37 | 1012.6 |
| 20260502101604 | 18 | 237 | 16.1 | 30.6 | 0.00 | 0.00 | 0.00 | 37 | 1012.7 |
| 20260502101033 | 17 | 226 | 17.7 | 25.7 | 0.00 | 0.00 | 0.00 | 36 | 1012.7 |
| 20260502100533 | 18 | 162 | 14.5 | 25.7 | 0.00 | 0.00 | 0.00 | 37 | 1012.7 |
| 20260502091034 | 17 | 219 | 12.9 | 24.1 | 0.00 | 0.00 | 0.00 | 43 | 1012.9 |
| 20260502090534 | 16 | 240 | 16.1 | 22.5 | 0.00 | 0.00 | 0.00 | 43 | 1013.0 |
| 20260502071033 | 13 | 226 | 11.3 | 16.1 | 0.00 | 0.00 | 0.00 | 45 | 1014.2 |
| 20260502070535 | 12 | 210 | 11.3 | 16.1 | 0.00 | 0.00 | 0.00 | 46 | 1014.2 |
| 20260502070039 | 12 | 212 | 11.3 | 16.1 | 0.00 | 0.00 | 0.00 | 50 | 1014.3 |
| 20260502065533 | 12 | 227 | 11.3 | 14.5 | 0.00 | 0.00 | 0.00 | 50 | 1014.3 |
| 20260502065032 | 12 | 221 | 8.0 | 11.3 | 0.00 | 0.00 | 0.00 | 53 | 1014.3 |
| 20260502064542 | 11 | 224 | 8.0 | 12.9 | 0.00 | 0.00 | 0.00 | 54 | 1014.3 |
| 20260502064033 | 11 | 194 | 6.4 | 12.9 | 0.00 | 0.00 | 0.00 | 56 | 1014.4 |
| 20260502063533 | 11 | 219 | 6.4 | 9.7 | 0.00 | 0.00 | 0.00 | 57 | 1014.5 |
| 20260502063045 | 10 | 226 | 8.0 | 9.7 | 0.00 | 0.00 | 0.00 | 58 | 1014.6 |
| 20260502062534 | 10 | 220 | 6.4 | 9.7 | 0.00 | 0.00 | 0.00 | 60 | 1014.6 |
| 20260502062032 | 10 | 219 | 6.4 | 9.7 | 0.00 | 0.00 | 0.00 | 62 | 1014.6 |
| 20260502061546 | 10 | 239 | 6.4 | 9.7 | 0.00 | 0.00 | 0.00 | 62 | 1014.7 |
| 20260502061032 | 9 | 213 | 6.4 | 9.7 | 0.00 | 0.00 | 0.00 | 66 | 1014.6 |
| 20260502060533 | 9 | 206 | 3.2 | 6.4 | 0.00 | 0.00 | 0.00 | 67 | 1014.7 |
| 20260502060051 | 8 | 213 | 1.6 | 4.8 | 0.00 | 0.00 | 0.00 | 66 | 1014.8 |
| 20260502055533 | 8 | 229 | 1.6 | 4.8 | 0.00 | 0.00 | 0.00 | 68 | 1014.8 |
| 20260502055032 | 8 | 194 | 3.2 | 4.8 | 0.00 | 0.00 | 0.00 | 68 | 1014.9 |
| 20260502054547 | 8 | 212 | 0.0 | 1.6 | 0.00 | 0.00 | 0.00 | 68 | 1014.7 |
| 20260502054033 | 8 | 0 | 0.0 | 4.8 | 0.00 | 0.00 | 0.00 | 68 | 1014.9 |
| 20260502053535 | 8 | 0 | 1.6 | 4.8 | 0.00 | 0.00 | 0.00 | 68 | 1015.0 |
| 20260502053048 | 7 | 134 | 0.0 | 3.2 | 0.00 | 0.00 | 0.00 | 69 | 1015.0 |
| 20260502052533 | 7 | 0 | 0.0 | 1.6 | 0.00 | 0.00 | 0.00 | 70 | 1015.1 |
| 20260502052036 | 7 | 0 | 0.0 | 1.6 | 0.00 | 0.00 | 0.00 | 72 | 1015.1 |
| 20260502051557 | 6 | 0 | 0.0 | 0.0 | 0.00 | 0.00 | 0.00 | 74 | 1015.1 |
| 20260502051032 | 6 | 0 | 0.0 | 0.0 | 0.00 | 0.00 | 0.00 | 75 | 1015.1 |
| 20260502050536 | 6 | 0 | 0.0 | 0.0 | 0.00 | 0.00 | 0.00 | 75 | 1015.2 |
| 20260502050040 | 6 | 0 | 0.0 | 0.0 | 0.00 | 0.00 | 0.00 | 75 | 1015.2 |
| 20260502045535 | 6 | 0 | 0.0 | 0.0 | 0.00 | 0.00 | 0.00 | 75 | 1015.3 |
| 20260502045034 | 6 | 0 | 0.0 | 0.0 | 0.00 | 0.00 | 0.00 | 75 | 1015.3 |
| 20260502044540 | 6 | 0 | 0.0 | 0.0 | 0.00 | 0.00 | 0.00 | 75 | 1015.3 |
| 20260502044034 | 6 | 164 | 0.0 | 0.0 | 0.00 | 0.00 | 0.00 | 74 | 1015.4 |
| 20260502043533 | 6 | 0 | 0.0 | 0.0 | 0.00 | 0.00 | 0.00 | 74 | 1015.4 |
| 20260502043039 | 6 | 0 | 0.0 | 0.0 | 0.00 | 0.00 | 0.00 | 73 | 1015.3 |
| 20260502042533 | 6 | 0 | 0.0 | 0.0 | 0.00 | 0.00 | 0.00 | 73 | 1015.3 |
| 20260502042033 | 6 | 0 | 0.0 | 1.6 | 0.00 | 0.00 | 0.00 | 74 | 1015.4 |
| 20260502041543 | 6 | 0 | 0.0 | 1.6 | 0.00 | 0.00 | 0.00 | 74 | 1015.5 |
| 20260502041033 | 6 | 0 | 0.0 | 0.0 | 0.00 | 0.00 | 0.00 | 74 | 1015.5 |
| 20260502040535 | 6 | 0 | 0.0 | 0.0 | 0.00 | 0.00 | 0.00 | 74 | 1015.5 |
| 20260502040049 | 6 | 0 | 0.0 | 1.6 | 0.00 | 0.00 | 0.00 | 74 | 1015.6 |
| 20260502035533 | 6 | 0 | 0.0 | 1.6 | 0.00 | 0.00 | 0.00 | 74 | 1015.6 |
| 20260502035034 | 6 | 0 | 0.0 | 1.6 | 0.00 | 0.00 | 0.00 | 74 | 1015.6 |
| 20260502034546 | 6 | 0 | 0.0 | 1.6 | 0.00 | 0.00 | 0.00 | 74 | 1015.7 |
| 20260502034033 | 6 | 0 | 0.0 | 1.6 | 0.00 | 0.00 | 0.00 | 74 | 1015.9 |
| 20260502033533 | 6 | 120 | 0.0 | 3.2 | 0.00 | 0.00 | 0.00 | 73 | 1015.8 |
| 20260502033042 | 6 | 0 | 0.0 | 3.2 | 0.00 | 0.00 | 0.00 | 73 | 1015.9 |
| 20260502032533 | 6 | 117 | 0.0 | 1.6 | 0.00 | 0.00 | 0.00 | 73 | 1016.0 |
| 20260502032034 | 6 | 0 | 0.0 | 1.6 | 0.00 | 0.00 | 0.00 | 73 | 1016.0 |
| 20260502031547 | 6 | 0 | 0.0 | 6.4 | 0.00 | 0.00 | 0.00 | 73 | 1016.2 |
| 20260502031033 | 6 | 231 | 1.6 | 6.4 | 0.00 | 0.00 | 0.00 | 73 | 1016.1 |
| 20260502030534 | 6 | 0 | 1.6 | 4.8 | 0.00 | 0.00 | 0.00 | 73 | 1016.3 |
| 20260502030039 | 6 | 134 | 1.6 | 4.8 | 0.00 | 0.00 | 0.00 | 73 | 1016.4 |
| 20260502025534 | 6 | 203 | 0.0 | 4.8 | 0.00 | 0.00 | 0.00 | 72 | 1016.5 |
| 20260502025035 | 6 | 0 | 0.0 | 6.4 | 0.00 | 0.00 | 0.00 | 72 | 1016.6 |
| 20260502024545 | 7 | 199 | 1.6 | 6.4 | 0.00 | 0.00 | 0.00 | 71 | 1016.5 |
| 20260502024033 | 7 | 201 | 1.6 | 3.2 | 0.00 | 0.00 | 0.00 | 71 | 1016.6 |
| 20260502023533 | 7 | 0 | 0.0 | 3.2 | 0.00 | 0.00 | 0.00 | 71 | 1016.6 |
| 20260502023041 | 7 | 147 | 0.0 | 3.2 | 0.00 | 0.00 | 0.00 | 71 | 1016.6 |
| 20260502022533 | 7 | 134 | 0.0 | 1.6 | 0.00 | 0.00 | 0.00 | 70 | 1016.6 |
| 20260502022032 | 7 | 0 | 0.0 | 3.2 | 0.00 | 0.00 | 0.00 | 70 | 1016.7 |
| 20260502021547 | 7 | 0 | 0.0 | 3.2 | 0.00 | 0.00 | 0.00 | 69 | 1016.8 |
| 20260502021034 | 7 | 153 | 0.0 | 3.2 | 0.00 | 0.00 | 0.00 | 68 | 1016.8 |
| 20260502020534 | 7 | 0 | 0.0 | 1.6 | 0.00 | 0.00 | 0.00 | 68 | 1016.7 |
| 20260502020038 | 7 | 0 | 0.0 | 3.2 | 0.00 | 0.00 | 0.00 | 67 | 1016.8 |
| 20260502015535 | 7 | 191 | 0.0 | 3.2 | 0.00 | 0.00 | 0.00 | 68 | 1016.9 |
| 20260502015033 | 7 | 161 | 0.0 | 1.6 | 0.00 | 0.00 | 0.00 | 68 | 1017.0 |
| 20260502014549 | 7 | 0 | 0.0 | 3.2 | 0.00 | 0.00 | 0.00 | 68 | 1017.0 |
| 20260502014033 | 7 | 148 | 0.0 | 3.2 | 0.00 | 0.00 | 0.00 | 68 | 1017.0 |
| 20260502013534 | 7 | 203 | 1.6 | 4.8 | 0.00 | 0.00 | 0.00 | 68 | 1017.1 |
| 20260502013054 | 7 | 204 | 1.6 | 4.8 | 0.00 | 0.00 | 0.00 | 68 | 1017.2 |
| 20260502012533 | 7 | 210 | 1.6 | 3.2 | 0.00 | 0.00 | 0.00 | 68 | 1017.2 |
| 20260502012033 | 7 | 213 | 1.6 | 3.2 | 0.00 | 0.00 | 0.00 | 68 | 1017.2 |
| 20260502011557 | 7 | 216 | 1.6 | 3.2 | 0.00 | 0.00 | 0.00 | 68 | 1017.2 |
| 20260502011032 | 7 | 215 | 0.0 | 6.4 | 0.00 | 0.00 | 0.00 | 67 | 1017.3 |
| 20260502010533 | 7 | 229 | 1.6 | 6.4 | 0.00 | 0.00 | 0.00 | 67 | 1017.4 |
| 20260502010046 | 7 | 232 | 1.6 | 6.4 | 0.00 | 0.00 | 0.00 | 67 | 1017.5 |
| 20260502005533 | 7 | 219 | 1.6 | 6.4 | 0.00 | 0.00 | 0.00 | 67 | 1017.5 |
| 20260502005033 | 8 | 207 | 1.6 | 4.8 | 0.00 | 0.00 | 0.00 | 67 | 1017.6 |
| 20260502004554 | 8 | 224 | 1.6 | 4.8 | 0.00 | 0.00 | 0.00 | 66 | 1017.6 |
| 20260502004033 | 8 | 226 | 0.0 | 4.8 | 0.00 | 0.00 | 0.00 | 65 | 1017.7 |
| 20260502003532 | 8 | 214 | 1.6 | 4.8 | 0.00 | 0.00 | 0.00 | 64 | 1017.7 |
| 20260502003045 | 9 | 243 | 0.0 | 4.8 | 0.00 | 0.00 | 0.00 | 64 | 1017.8 |
| 20260502002532 | 9 | 233 | 1.6 | 6.4 | 0.00 | 0.00 | 0.00 | 63 | 1017.8 |
| 20260502002035 | 9 | 0 | 0.0 | 6.4 | 0.00 | 0.00 | 0.00 | 63 | 1017.8 |
| 20260502001541 | 9 | 171 | 1.6 | 6.4 | 0.00 | 0.00 | 0.00 | 63 | 1017.8 |
| 20260502001033 | 10 | 230 | 1.6 | 6.4 | 0.00 | 0.00 | 0.00 | 62 | 1017.8 |
| 20260502000533 | 10 | 249 | 3.2 | 6.4 | 0.00 | 0.00 | 0.00 | 62 | 1017.9 |
| 20260502000100 | 10 | 231 | 0.0 | 6.4 | 0.00 | 0.00 | 0.00 | 62 | 1017.9 |
| 20260501235533 | 10 | 0 | 1.6 | 6.4 | 0.00 | 0.00 | 0.00 | 62 | 1017.9 |
| 20260501235037 | 10 | 162 | 1.6 | 6.4 | 0.00 | 0.00 | 0.00 | 62 | 1018.0 |
| 20260501234541 | 10 | 0 | 0.0 | 8.0 | 0.00 | 0.00 | 0.00 | 63 | 1018.1 |
| 20260501234033 | 10 | 179 | 4.8 | 8.0 | 0.00 | 0.00 | 0.00 | 63 | 1018.0 |
| 20260501233533 | 10 | 124 | 1.6 | 14.5 | 0.00 | 0.00 | 0.00 | 65 | 1018.2 |
| 20260501233049 | 10 | 179 | 6.4 | 14.5 | 0.00 | 0.00 | 0.00 | 65 | 1018.2 |
| 20260501232532 | 10 | 157 | 4.8 | 9.7 | 0.00 | 0.00 | 0.00 | 65 | 1018.2 |
| 20260501232032 | 10 | 204 | 3.2 | 9.7 | 0.00 | 0.00 | 0.00 | 65 | 1018.2 |
| 20260501231552 | 10 | 243 | 4.8 | 9.7 | 0.00 | 0.00 | 0.00 | 65 | 1018.4 |
| 20260501231032 | 10 | 150 | 1.6 | 9.7 | 0.00 | 0.00 | 0.00 | 63 | 1018.3 |
| 20260501230532 | 11 | 188 | 1.6 | 8.0 | 0.00 | 0.00 | 0.00 | 61 | 1018.4 |
| 20260501230048 | 11 | 140 | 3.2 | 8.0 | 0.00 | 0.00 | 0.00 | 61 | 1018.4 |
| 20260501225536 | 11 | 148 | 0.0 | 4.8 | 0.00 | 0.00 | 0.00 | 60 | 1018.5 |
| 20260501225035 | 11 | 153 | 0.0 | 4.8 | 0.00 | 0.00 | 0.00 | 60 | 1018.5 |
| 20260501224547 | 11 | 0 | 1.6 | 4.8 | 0.00 | 0.00 | 0.00 | 59 | 1018.6 |
| 20260501224033 | 11 | 0 | 0.0 | 4.8 | 0.00 | 0.00 | 0.00 | 59 | 1018.6 |
| 20260501223536 | 12 | 141 | 1.6 | 4.8 | 0.00 | 0.00 | 0.00 | 58 | 1018.5 |
| 20260501223042 | 12 | 188 | 1.6 | 4.8 | 0.00 | 0.00 | 0.00 | 56 | 1018.6 |
| 20260501222533 | 12 | 314 | 1.6 | 4.8 | 0.00 | 0.00 | 0.00 | 56 | 1018.6 |
| 20260501222033 | 12 | 0 | 0.0 | 4.8 | 0.00 | 0.00 | 0.00 | 58 | 1018.7 |
| 20260501221554 | 11 | 0 | 0.0 | 6.4 | 0.00 | 0.00 | 0.00 | 58 | 1018.6 |
| 20260501221036 | 11 | 340 | 3.2 | 6.4 | 0.00 | 0.00 | 0.00 | 60 | 1018.7 |
| 20260501220533 | 11 | 204 | 0.0 | 6.4 | 0.00 | 0.00 | 0.00 | 60 | 1018.8 |
| 20260501220043 | 12 | 27 | 0.0 | 12.9 | 0.00 | 0.00 | 0.00 | 58 | 1018.8 |
| 20260501215533 | 12 | 243 | 3.2 | 14.5 | 0.00 | 0.00 | 0.00 | 57 | 1018.8 |
| 20260501215032 | 12 | 152 | 6.4 | 14.5 | 0.00 | 0.00 | 0.00 | 58 | 1018.7 |
| 20260501214546 | 12 | 0 | 4.8 | 12.9 | 0.00 | 0.00 | 0.00 | 59 | 1018.7 |
| 20260501214033 | 12 | 250 | 3.2 | 11.3 | 0.00 | 0.00 | 0.00 | 59 | 1018.8 |
| 20260501213532 | 12 | 262 | 1.6 | 12.9 | 0.00 | 0.00 | 0.00 | 59 | 1018.8 |
| 20260501213043 | 12 | 232 | 4.8 | 12.9 | 0.00 | 0.00 | 0.00 | 60 | 1018.8 |
| 20260501212533 | 11 | 232 | 1.6 | 8.0 | 0.00 | 0.00 | 0.00 | 61 | 1018.8 |
| 20260501212033 | 11 | 239 | 0.0 | 4.8 | 0.00 | 0.00 | 0.00 | 61 | 1018.8 |
| 20260501211547 | 11 | 245 | 1.6 | 4.8 | 0.00 | 0.00 | 0.00 | 62 | 1018.9 |
| 20260501211032 | 11 | 249 | 1.6 | 4.8 | 0.00 | 0.00 | 0.00 | 62 | 1019.0 |
| 20260501210532 | 11 | 256 | 3.2 | 8.0 | 0.00 | 0.00 | 0.00 | 62 | 1019.0 |
| 20260501210038 | 11 | 244 | 4.8 | 8.0 | 0.00 | 0.00 | 0.00 | 62 | 1019.1 |
| 20260501205534 | 11 | 230 | 4.8 | 8.0 | 0.00 | 0.00 | 0.00 | 62 | 1019.0 |
| 20260501205033 | 11 | 225 | 3.2 | 6.4 | 0.00 | 0.00 | 0.00 | 62 | 1019.1 |
| 20260501204538 | 11 | 217 | 3.2 | 6.4 | 0.00 | 0.00 | 0.00 | 62 | 1019.1 |